Time,TemperatureF,DewpointF,PressureIn,WindDirection,WindDirectionDegrees,WindSpeedMPH,WindSpeedGustMPH,Humidity,HourlyPrecipIn,Conditions,Clouds,dailyrainin,SolarRadiationWatts/m^2,SoftwareType,DateUTC
2013-05-13 00:22:00,55.0,37.0,-100.00,SE,134,1.0,8.0,50,0.00,,,0.00,1.000000,,2013-05-13 07:22:00,
2013-05-13 00:31:00,55.0,37.0,-100.00,SE,134,1.0,8.0,50,0.00,,,0.00,1.000000,,2013-05-13 07:31:00,
2013-05-13 00:41:00,55.0,37.0,-100.00,SE,134,1.0,8.0,50,0.00,,,0.00,1.000000,,2013-05-13 07:41:00,
2013-05-13 00:52:00,55.0,37.0,-100.00,SE,134,1.0,8.0,50,0.00,,,0.00,1.000000,,2013-05-13 07:52:00,
2013-05-13 01:21:00,54.0,37.0,-100.00,ESE,114,1.0,3.0,53,0.00,,,0.00,1.000000,,2013-05-13 08:21:00,
2013-05-13 01:31:00,54.0,37.0,-100.00,ESE,114,1.0,3.0,53,0.00,,,0.00,1.000000,,2013-05-13 08:31:00,
2013-05-13 01:42:00,54.0,37.0,-100.00,ESE,114,1.0,3.0,53,0.00,,,0.00,1.000000,,2013-05-13 08:42:00,
2013-05-13 01:51:00,54.0,37.0,-100.00,ESE,114,1.0,3.0,53,0.00,,,0.00,1.000000,,2013-05-13 08:51:00,
2013-05-13 02:21:00,50.0,40.0,-100.00,East,81,4.0,4.0,69,0.00,,,-99.99,1.000000,,2013-05-13 09:21:00,
2013-05-13 02:33:00,50.0,40.0,-100.00,East,81,4.0,4.0,69,0.00,,,-99.99,1.000000,,2013-05-13 09:33:00,
2013-05-13 02:42:00,50.0,40.0,-100.00,East,81,4.0,4.0,69,0.00,,,-99.99,1.000000,,2013-05-13 09:42:00,
2013-05-13 02:52:00,50.0,40.0,-100.00,East,81,4.0,4.0,69,0.00,,,-99.99,1.000000,,2013-05-13 09:52:00,
2013-05-13 03:22:00,49.0,39.0,-100.00,East,80,3.0,6.0,68,0.00,,,0.00,1.000000,,2013-05-13 10:22:00,
2013-05-13 03:32:00,49.0,39.0,-100.00,East,80,3.0,6.0,68,0.00,,,0.00,1.000000,,2013-05-13 10:32:00,
2013-05-13 03:42:00,49.0,39.0,-100.00,East,80,3.0,6.0,68,0.00,,,0.00,1.000000,,2013-05-13 10:42:00,
2013-05-13 03:52:00,49.0,39.0,-100.00,East,80,3.0,6.0,68,0.00,,,0.00,1.000000,,2013-05-13 10:52:00,
2013-05-13 04:21:00,46.0,40.0,-100.00,East,85,3.0,5.0,78,0.00,,,0.00,1.000000,,2013-05-13 11:21:00,
2013-05-13 04:32:00,46.0,40.0,-100.00,East,85,3.0,5.0,78,0.00,,,0.00,1.000000,,2013-05-13 11:32:00,
2013-05-13 04:41:00,46.0,40.0,-100.00,East,85,3.0,5.0,78,0.00,,,0.00,1.000000,,2013-05-13 11:41:00,
2013-05-13 04:51:00,46.0,40.0,-100.00,East,85,3.0,5.0,78,0.00,,,0.00,1.000000,,2013-05-13 11:51:00,
2013-05-13 05:21:00,45.0,39.0,-100.00,East,83,4.0,5.0,80,0.00,,,-99.99,1.000000,,2013-05-13 12:21:00,
2013-05-13 05:32:00,45.0,39.0,-100.00,East,83,4.0,5.0,80,0.00,,,-99.99,1.000000,,2013-05-13 12:32:00,
2013-05-13 05:42:00,45.0,39.0,-100.00,East,83,4.0,5.0,80,0.00,,,-99.99,1.000000,,2013-05-13 12:42:00,
2013-05-13 05:51:00,45.0,39.0,-100.00,East,83,4.0,5.0,80,0.00,,,-99.99,1.000000,,2013-05-13 12:51:00,
2013-05-13 06:21:00,43.0,40.0,-100.00,East,83,4.0,5.0,88,0.00,,,0.00,2.000000,,2013-05-13 13:21:00,
2013-05-13 06:31:00,43.0,40.0,-100.00,East,83,4.0,5.0,88,0.00,,,0.00,2.000000,,2013-05-13 13:31:00,
2013-05-13 06:41:00,43.0,40.0,-100.00,East,83,4.0,5.0,88,0.00,,,0.00,2.000000,,2013-05-13 13:41:00,
2013-05-13 06:52:00,43.0,40.0,-100.00,East,83,4.0,5.0,88,0.00,,,0.00,2.000000,,2013-05-13 13:52:00,
2013-05-13 07:22:00,46.0,41.0,-100.00,East,87,3.0,5.0,82,0.00,,,0.00,39.000000,,2013-05-13 14:22:00,
2013-05-13 07:31:00,46.0,41.0,-100.00,East,87,3.0,5.0,82,0.00,,,0.00,39.000000,,2013-05-13 14:31:00,
2013-05-13 07:41:00,46.0,41.0,-100.00,East,87,3.0,5.0,82,0.00,,,0.00,39.000000,,2013-05-13 14:41:00,
2013-05-13 07:51:00,46.0,41.0,-100.00,East,87,3.0,5.0,82,0.00,,,0.00,39.000000,,2013-05-13 14:51:00,
2013-05-13 08:21:00,57.0,45.0,-100.00,SE,127,2.0,5.0,64,0.00,,,0.00,221.000000,,2013-05-13 15:21:00,
2013-05-13 08:31:00,57.0,45.0,-100.00,SE,127,2.0,5.0,64,0.00,,,0.00,221.000000,,2013-05-13 15:31:00,
2013-05-13 08:42:00,57.0,45.0,-100.00,SE,127,2.0,5.0,64,0.00,,,0.00,221.000000,,2013-05-13 15:42:00,
2013-05-13 08:52:00,57.0,45.0,-100.00,SE,127,2.0,5.0,64,0.00,,,0.00,221.000000,,2013-05-13 15:52:00,
2013-05-13 09:21:00,64.0,42.0,-100.00,South,180,5.0,9.0,45,0.00,,,0.00,447.000000,,2013-05-13 16:21:00,
2013-05-13 09:33:00,64.0,42.0,-100.00,South,180,5.0,9.0,45,0.00,,,0.00,447.000000,,2013-05-13 16:33:00,
2013-05-13 09:42:00,64.0,42.0,-100.00,South,180,5.0,9.0,45,0.00,,,0.00,447.000000,,2013-05-13 16:42:00,
2013-05-13 09:52:00,64.0,42.0,-100.00,South,180,5.0,9.0,45,0.00,,,0.00,447.000000,,2013-05-13 16:52:00,
2013-05-13 10:21:00,67.0,43.0,-100.00,South,179,7.0,13.0,42,0.00,,,0.00,634.000000,,2013-05-13 17:21:00,
2013-05-13 10:32:00,67.0,43.0,-100.00,South,179,7.0,13.0,42,0.00,,,0.00,634.000000,,2013-05-13 17:32:00,
2013-05-13 10:42:00,67.0,43.0,-100.00,South,179,7.0,13.0,42,0.00,,,0.00,634.000000,,2013-05-13 17:42:00,
2013-05-13 10:54:00,67.0,43.0,-100.00,South,179,7.0,13.0,42,0.00,,,0.00,634.000000,,2013-05-13 17:54:00,
2013-05-13 11:23:00,69.0,43.0,-100.00,SW,230,11.0,19.0,39,0.00,,,0.00,797.000000,,2013-05-13 18:23:00,
2013-05-13 11:32:00,69.0,43.0,-100.00,SW,230,11.0,19.0,39,0.00,,,0.00,797.000000,,2013-05-13 18:32:00,
2013-05-13 11:42:00,69.0,43.0,-100.00,SW,230,11.0,19.0,39,0.00,,,0.00,797.000000,,2013-05-13 18:42:00,
2013-05-13 11:51:00,69.0,43.0,-100.00,SW,230,11.0,19.0,39,0.00,,,0.00,797.000000,,2013-05-13 18:51:00,
2013-05-13 12:21:00,69.0,43.0,-100.00,WSW,242,18.0,31.0,39,0.00,,,0.00,923.000000,,2013-05-13 19:21:00,
2013-05-13 12:32:00,69.0,43.0,-100.00,WSW,242,18.0,31.0,39,0.00,,,0.00,923.000000,,2013-05-13 19:32:00,
2013-05-13 12:43:00,69.0,43.0,-100.00,WSW,242,18.0,31.0,39,0.00,,,0.00,923.000000,,2013-05-13 19:43:00,
2013-05-13 12:52:00,69.0,43.0,-100.00,WSW,242,18.0,31.0,39,0.00,,,0.00,923.000000,,2013-05-13 19:52:00,
2013-05-13 13:23:00,69.0,42.0,-100.00,WSW,250,19.0,32.0,37,0.00,,,0.00,974.000000,,2013-05-13 20:23:00,
2013-05-13 13:33:00,69.0,42.0,-100.00,WSW,250,19.0,32.0,37,0.00,,,0.00,974.000000,,2013-05-13 20:33:00,
2013-05-13 13:44:00,69.0,42.0,-100.00,WSW,250,19.0,32.0,37,0.00,,,0.00,974.000000,,2013-05-13 20:44:00,
2013-05-13 13:53:00,69.0,42.0,-100.00,WSW,250,19.0,32.0,37,0.00,,,0.00,974.000000,,2013-05-13 20:53:00,
2013-05-13 14:23:00,67.0,44.0,-100.00,West,279,20.0,33.0,44,0.00,,,0.00,917.000000,,2013-05-13 21:23:00,
2013-05-13 14:33:00,67.0,44.0,-100.00,West,279,20.0,33.0,44,0.00,,,0.00,917.000000,,2013-05-13 21:33:00,
2013-05-13 14:43:00,67.0,44.0,-100.00,West,279,20.0,33.0,44,0.00,,,0.00,917.000000,,2013-05-13 21:43:00,
2013-05-13 14:53:00,67.0,44.0,-100.00,West,279,20.0,33.0,44,0.00,,,0.00,917.000000,,2013-05-13 21:53:00,
2013-05-13 15:23:00,64.0,43.0,-100.00,West,277,23.0,35.0,46,0.00,,,0.00,853.000000,,2013-05-13 22:23:00,
2013-05-13 15:32:00,64.0,43.0,-100.00,West,277,23.0,35.0,46,0.00,,,0.00,853.000000,,2013-05-13 22:32:00,
2013-05-13 15:42:00,64.0,43.0,-100.00,West,277,23.0,35.0,46,0.00,,,0.00,853.000000,,2013-05-13 22:42:00,
2013-05-13 15:52:00,64.0,43.0,-100.00,West,277,23.0,35.0,46,0.00,,,0.00,853.000000,,2013-05-13 22:52:00,
2013-05-13 16:23:00,65.0,41.0,-100.00,West,268,18.0,28.0,41,0.00,,,0.00,801.000000,,2013-05-13 23:23:00,
2013-05-13 16:33:00,65.0,41.0,-100.00,West,268,18.0,28.0,41,0.00,,,0.00,801.000000,,2013-05-13 23:33:00,
2013-05-13 16:42:00,65.0,41.0,-100.00,West,268,18.0,28.0,41,0.00,,,0.00,801.000000,,2013-05-13 23:42:00,
2013-05-13 16:53:00,65.0,41.0,-100.00,West,268,18.0,28.0,41,0.00,,,0.00,801.000000,,2013-05-13 23:53:00,
2013-05-13 17:22:00,63.0,40.0,-100.00,West,277,21.0,31.0,42,0.00,,,0.00,673.000000,,2013-05-14 00:22:00,
2013-05-13 17:31:00,63.0,40.0,-100.00,West,277,21.0,31.0,42,0.00,,,0.00,673.000000,,2013-05-14 00:31:00,
2013-05-13 17:41:00,63.0,40.0,-100.00,West,277,21.0,31.0,42,0.00,,,0.00,673.000000,,2013-05-14 00:41:00,
2013-05-13 17:51:00,63.0,40.0,-100.00,West,277,21.0,31.0,42,0.00,,,0.00,673.000000,,2013-05-14 00:51:00,
2013-05-13 18:21:00,61.0,38.0,-100.00,West,269,11.0,30.0,43,0.00,,,-99.99,420.000000,,2013-05-14 01:21:00,
2013-05-13 18:31:00,61.0,38.0,-100.00,West,269,11.0,30.0,43,0.00,,,-99.99,420.000000,,2013-05-14 01:31:00,
2013-05-13 18:43:00,61.0,38.0,-100.00,West,269,11.0,30.0,43,0.00,,,-99.99,420.000000,,2013-05-14 01:43:00,
2013-05-13 18:52:00,61.0,38.0,-100.00,West,269,11.0,30.0,43,0.00,,,-99.99,420.000000,,2013-05-14 01:52:00,
2013-05-13 19:22:00,59.0,32.0,-100.00,West,260,13.0,21.0,36,0.00,,,0.00,281.000000,,2013-05-14 02:22:00,
2013-05-13 19:31:00,59.0,32.0,-100.00,West,260,13.0,21.0,36,0.00,,,0.00,281.000000,,2013-05-14 02:31:00,
2013-05-13 19:42:00,59.0,32.0,-100.00,West,260,13.0,21.0,36,0.00,,,0.00,281.000000,,2013-05-14 02:42:00,
2013-05-13 19:51:00,59.0,32.0,-100.00,West,260,13.0,21.0,36,0.00,,,0.00,281.000000,,2013-05-14 02:51:00,
2013-05-13 20:21:00,58.0,31.0,-100.00,West,261,9.0,20.0,36,0.00,,,0.00,177.000000,,2013-05-14 03:21:00,
2013-05-13 20:33:00,58.0,31.0,-100.00,West,261,9.0,20.0,36,0.00,,,0.00,177.000000,,2013-05-14 03:33:00,
2013-05-13 20:42:00,58.0,31.0,-100.00,West,261,9.0,20.0,36,0.00,,,0.00,177.000000,,2013-05-14 03:42:00,
2013-05-13 20:52:00,58.0,31.0,-100.00,West,261,9.0,20.0,36,0.00,,,0.00,177.000000,,2013-05-14 03:52:00,
2013-05-13 21:22:00,54.0,35.0,-100.00,West,275,7.0,16.0,48,0.00,,,-99.99,17.000000,,2013-05-14 04:22:00,
2013-05-13 21:32:00,54.0,35.0,-100.00,West,275,7.0,16.0,48,0.00,,,-99.99,17.000000,,2013-05-14 04:32:00,
2013-05-13 21:43:00,54.0,35.0,-100.00,West,275,7.0,16.0,48,0.00,,,-99.99,17.000000,,2013-05-14 04:43:00,
2013-05-13 21:52:00,54.0,35.0,-100.00,West,275,7.0,16.0,48,0.00,,,-99.99,17.000000,,2013-05-14 04:52:00,
2013-05-13 22:21:00,50.0,40.0,-100.00,WNW,288,7.0,11.0,69,0.00,,,0.00,1.000000,,2013-05-14 05:21:00,
2013-05-13 22:32:00,50.0,40.0,-100.00,WNW,288,7.0,11.0,69,0.00,,,0.00,1.000000,,2013-05-14 05:32:00,
2013-05-13 22:42:00,50.0,40.0,-100.00,WNW,288,7.0,11.0,69,0.00,,,0.00,1.000000,,2013-05-14 05:42:00,
2013-05-13 22:52:00,50.0,40.0,-100.00,WNW,288,7.0,11.0,69,0.00,,,0.00,1.000000,,2013-05-14 05:52:00,
2013-05-13 23:22:00,48.0,39.0,-100.00,NNW,337,4.0,8.0,72,0.00,,,0.00,1.000000,,2013-05-14 06:22:00,
2013-05-13 23:32:00,48.0,39.0,-100.00,NNW,337,4.0,8.0,72,0.00,,,0.00,1.000000,,2013-05-14 06:32:00,
2013-05-13 23:42:00,48.0,39.0,-100.00,NNW,337,4.0,8.0,72,0.00,,,0.00,1.000000,,2013-05-14 06:42:00,
2013-05-13 23:51:00,48.0,39.0,-100.00,NNW,337,4.0,8.0,72,0.00,,,0.00,1.000000,,2013-05-14 06:51:00,